Japanese version Home page |
Updated on October 24, 2018 |
|
Orbital ElementsEpoch 2009 May 9.0 TT = JDT 2454960.5 T 2009 Apr. 21.53056 TT MPCW q 3.8037672 (2000.0) P Q n 0.10348855 Peri. 27.45406 +0.98963685 +0.10957047 a 4.4930492 Node 325.85999 -0.14196691 +0.84359321 e 0.1534107 Incl. 9.51862 +0.02154777 +0.52568509 P 9.52 From 377 observations 2008 July 28-2018 Sept. 6, mean residual 0".6.
|
Magnitudes Graphm1 = -2 + 5 log d + 30 log r(t + 200)
|
The orbital elements are published on M.P.E.C. 2018-S01.
|